Tucson Davis Monthan, AZ

8:31 PM MST on June 24, 2018 (GMT -0700)
Davis-Monthan Air Force Base

Weather History for KDMA - December, 2017

Change the Weather History Date:

Monday, December 11, 2017

  Actual Average Record
Temperature  
Mean Temperature 64 °F -  
Max Temperature 72 °F 65 °F 80 °F (1950)
Min Temperature 55 °F 39 °F 27 °F (1966)
Degree Days  
Heating Degree Days 2    
Growing Degree Days 14 (Base 50)    
Moisture  
Dew Point 18 °F    
Average Humidity 19    
Maximum Humidity 24    
Minimum Humidity 13    
Precipitation  
Precipitation 0.00 in - - ()
Sea Level Pressure  
Sea Level Pressure 30.17 in    
Wind  
Wind Speed 10 mph (SE)    
Max Wind Speed 20 mph    
Max Gust Speed -    
Visibility 10 miles    
Events      
Averages and records for this station are not official NWS values.
T = Trace of Precipitation, MM = Missing Value Source: NWS Daily Summary

Daily Weather History Graph

Daily Weather History Graph

Search for Another Location

Airport or City:

Astronomy

Dec. 11, 2017 Rise Set
Actual Time 7:14 AM MST 5:19 PM MST
Civil Twilight 6:47 AM MST 5:46 PM MST
Nautical Twilight 6:17 AM MST 6:16 PM MST
Astronomical Twilight 5:47 AM MST 6:46 PM MST
Moon 1:07 AM MST (12/11) 1:37 PM MST (12/11)
Length of Visible Light 10h 58m
Length of Day
10h 04m
Waning Crescent, 35% of the Moon is Illuminated
Dec 11
Waning Crescent
Dec 17
New
Dec 26
First Quarter
Jan 1
Full
Jan 8
Last Quarter

Hourly Weather History & Observations

Time (MST) Temp. Dew Point Humidity Pressure Visibility Wind Dir Wind Speed Gust Speed Precip Events Conditions
12:58 AM 55.4 °F 14.9 °F 20% 30.17 in 10.0 mi SSE 5.8 mph - N/A   Clear
1:58 AM 60.3 °F 15.3 °F 17% 30.16 in 10.0 mi SE 11.5 mph - N/A   Clear
2:58 AM 58.3 °F 16.2 °F 19% 30.17 in 10.0 mi SSE 8.1 mph - N/A   Clear
3:58 AM 56.8 °F 14.9 °F 19% 30.17 in 10.0 mi SE 12.7 mph - N/A   Scattered Clouds
4:58 AM 55.9 °F 15.4 °F 20% 30.17 in 10.0 mi SE 13.8 mph - N/A   Clear
5:58 AM 56.8 °F 16.2 °F 20% 30.17 in 10.0 mi SE 12.7 mph - N/A   Clear
6:58 AM 56.3 °F 16.9 °F 21% 30.18 in 10.0 mi SE 15.0 mph - N/A   Clear
7:58 AM 57.4 °F 17.8 °F 21% 30.21 in 10.0 mi ESE 17.3 mph - N/A   Clear
8:58 AM 61.5 °F 17.6 °F 18% 30.21 in 10.0 mi ESE 13.8 mph - N/A   Overcast
9:58 AM 62.1 °F 18.0 °F 18% 30.22 in 10.0 mi SE 10.4 mph - N/A   Scattered Clouds
10:58 AM 68.4 °F 18.9 °F 15% 30.19 in 10.0 mi SE 19.6 mph - N/A   Scattered Clouds
11:58 AM 70.5 °F 19.0 °F 14% 30.17 in 10.0 mi ESE 17.3 mph - N/A   Mostly Cloudy
12:58 PM 71.1 °F 19.4 °F 14% 30.14 in 10.0 mi ESE 15.0 mph - N/A   Clear
1:58 PM 70.0 °F 20.1 °F 15% 30.12 in 10.0 mi ESE 11.5 mph - N/A   Scattered Clouds
2:58 PM 72.9 °F 19.0 °F 13% 30.12 in 10.0 mi SE 8.1 mph - N/A   Partly Cloudy
3:58 PM 71.2 °F 17.8 °F 13% 30.11 in 10.0 mi SE 5.8 mph - N/A   Clear
4:58 PM 66.9 °F 19.2 °F 16% 30.14 in 10.0 mi SE 6.9 mph - N/A   Clear
5:58 PM 62.2 °F 19.4 °F 19% 30.15 in 10.0 mi SE 6.9 mph - N/A   Clear
6:58 PM 59.4 °F 18.3 °F 20% 30.18 in 10.0 mi Calm Calm - N/A   Clear
7:58 PM 57.4 °F 19.9 °F 23% 30.18 in 10.0 mi SE 6.9 mph - N/A   Clear
8:58 PM 57.0 °F 20.5 °F 24% 30.17 in 10.0 mi Calm Calm - N/A   Clear
9:58 PM 56.3 °F 19.9 °F 24% 30.18 in 10.0 mi SE 9.2 mph - N/A   Overcast
10:58 PM 59.9 °F 19.8 °F 21% 30.17 in 10.0 mi ESE 12.7 mph - N/A   Clear
11:58 PM 59.2 °F 20.3 °F 22% 30.17 in 10.0 mi ESE 13.8 mph - N/A   Mostly Cloudy